Total_Precipitation_Accumulation
1.14 0.96 1.26 1.18 1.07 1.04 0.97 1.01 0.95 0.86 0.78 0.73 0.66 0.60 0.56 0.54 0.55 0.57 0.55 0.46 0.41 0.41 0.38 0.44 0.49 0.42 0.41 0.43 0.46 0.50 0.55 0.55 0.49 0.42 0.45 0.48 0.47 0.53 0.66 0.81 0.98 1.02 0.82
0.86 0.93 1.37 1.30 1.21 1.11 1.05 1.05 0.98 0.81 0.70 0.65 0.61 0.55 0.52 0.52 0.55 0.53 0.48 0.43 0.41 0.38 0.38 0.46 0.50 0.46 0.47 0.52 0.60 0.67 0.71 0.64 0.55 0.49 0.62 0.67 0.61 0.63 0.69 0.80 1.08 1.03 0.74
0.77 0.83 1.09 1.42 1.36 1.17 1.05 1.04 1.01 0.84 0.66 0.59 0.58 0.55 0.48 0.44 0.44 0.44 0.44 0.40 0.40 0.38 0.38 0.45 0.50 0.44 0.45 0.55 0.66 0.69 0.70 0.68 0.60 0.66 1.11 1.64 1.23 0.85 0.74 0.85 0.90 0.79 0.68
0.71 0.76 0.89 1.31 1.31 1.17 1.11 1.02 1.09 0.95 0.72 0.64 0.61 0.55 0.48 0.42 0.46 0.53 0.55 0.45 0.42 0.40 0.37 0.41 0.51 0.45 0.44 0.51 0.57 0.56 0.61 0.65 0.69 0.94 1.53 1.96 1.71 1.20 1.04 0.97 0.88 0.80 0.73
0.67 0.76 1.10 1.36 1.18 1.07 1.05 1.10 1.21 1.08 0.93 0.79 0.67 0.58 0.53 0.49 0.50 0.58 0.54 0.52 0.51 0.46 0.45 0.51 0.57 0.52 0.45 0.43 0.44 0.46 0.58 0.80 0.99 1.10 1.42 1.65 1.75 1.44 1.20 1.03 0.96 0.91 0.91
0.67 0.75 0.98 1.14 1.08 1.04 1.06 1.08 1.12 1.13 1.13 0.94 0.77 0.70 0.68 0.64 0.63 0.66 0.66 0.60 0.59 0.57 0.59 0.59 0.58 0.56 0.51 0.49 0.47 0.50 0.66 0.89 1.07 1.19 1.45 1.55 1.54 1.33 1.13 1.01 1.04 1.16 1.17
0.58 0.65 0.77 0.97 0.93 0.93 0.98 1.05 1.04 1.09 1.17 1.04 0.81 0.79 0.81 0.73 0.73 0.75 0.77 0.67 0.65 0.63 0.64 0.66 0.60 0.58 0.55 0.55 0.54 0.58 0.66 0.73 0.86 1.12 1.44 1.65 1.38 1.19 1.12 0.98 1.01 1.25 1.37
0.67 0.63 0.68 0.84 0.91 0.91 0.98 1.08 0.99 1.01 1.10 1.05 0.93 0.86 0.79 0.78 0.81 0.82 0.78 0.74 0.68 0.68 0.69 0.70 0.69 0.63 0.59 0.59 0.59 0.64 0.69 0.68 0.67 0.85 1.02 1.43 1.58 1.41 1.10 0.98 1.03 1.15 1.30
1.04 0.94 0.77 0.70 0.74 0.81 0.97 1.11 1.08 1.03 1.03 0.99 1.03 0.97 0.93 0.90 0.84 0.78 0.77 0.76 0.75 0.75 0.75 0.73 0.69 0.65 0.63 0.62 0.61 0.65 0.73 0.71 0.73 0.78 0.80 1.24 1.56 1.47 1.12 0.97 0.99 1.23 1.32
1.07 1.04 0.90 0.80 0.78 0.80 0.76 0.93 1.13 1.18 1.12 1.02 1.00 0.99 0.99 0.92 0.83 0.77 0.71 0.72 0.77 0.79 0.83 0.84 0.76 0.74 0.70 0.65 0.63 0.70 0.76 0.67 0.62 0.64 0.76 1.01 1.44 1.51 1.32 0.99 0.86 0.94 1.03
0.89 0.89 0.88 0.89 0.92 0.97 0.97 0.95 1.17 1.26 1.18 0.99 0.89 0.93 0.93 0.79 0.81 0.82 0.71 0.83 0.83 0.88 0.93 0.92 0.87 0.85 0.75 0.66 0.71 0.81 0.69 0.56 0.67 0.66 0.74 0.93 1.27 1.42 1.38 1.10 0.82 0.79 0.85
0.73 0.70 0.68 0.71 0.79 0.91 0.99 1.32 1.53 1.33 1.21 0.95 0.94 0.83 0.89 0.96 1.03 0.86 0.80 0.95 0.98 1.02 1.00 0.99 1.02 0.94 0.77 0.59 0.64 0.70 0.56 0.58 0.65 0.58 0.68 0.93 1.18 1.27 1.24 1.09 0.89 0.79 0.82
0.56 0.51 0.50 0.48 0.50 0.59 0.79 1.14 1.43 1.55 1.52 1.43 1.19 0.96 0.97 0.85 0.74 0.68 0.70 0.80 0.87 0.95 0.91 0.94 0.94 0.80 0.71 0.65 0.59 0.53 0.53 0.57 0.68 0.69 0.82 0.99 1.13 1.21 1.20 1.09 0.95 0.86 0.85
0.52 0.51 0.46 0.45 0.42 0.44 0.53 0.70 0.90 1.04 1.14 1.16 1.01 0.91 0.98 0.87 0.76 0.76 0.76 0.75 0.75 0.83 0.92 0.96 0.91 0.78 0.66 0.60 0.57 0.57 0.59 0.60 0.73 0.92 1.04 0.90 0.99 1.14 1.22 1.15 1.05 0.96 0.93
0.56 0.62 0.58 0.49 0.45 0.44 0.47 0.55 0.63 0.78 0.87 0.90 0.92 0.88 0.91 0.92 0.89 0.86 0.78 0.77 0.71 0.77 0.87 0.94 0.90 0.81 0.75 0.69 0.66 0.70 0.73 0.77 0.80 0.86 0.93 0.88 0.96 1.18 1.34 1.35 1.19 1.03 1.00
0.56 0.62 0.67 0.59 0.55 0.50 0.47 0.51 0.55 0.65 0.73 0.77 0.76 0.76 0.86 0.94 0.94 0.90 0.85 0.86 0.83 0.84 0.96 0.94 0.86 0.89 0.88 0.78 0.67 0.66 0.72 0.79 0.85 0.81 0.85 0.95 0.96 0.99 1.25 1.45 1.46 1.24 1.19
0.56 0.59 0.61 0.63 0.63 0.62 0.60 0.58 0.57 0.64 0.74 0.76 0.73 0.68 0.70 0.78 0.84 0.87 0.87 0.87 0.91 1.00 1.04 1.07 0.90 0.91 0.86 0.77 0.71 0.66 0.64 0.67 0.72 0.77 0.74 0.73 0.81 0.89 1.08 1.39 1.59 1.47 1.37
0.48 0.49 0.54 0.55 0.61 0.68 0.71 0.72 0.73 0.73 0.80 0.77 0.76 0.69 0.64 0.69 0.77 0.90 0.91 0.88 0.91 1.03 1.11 1.15 1.05 1.00 0.92 0.88 0.85 0.77 0.70 0.71 0.69 0.77 0.77 0.69 0.80 0.77 0.90 1.03 1.22 1.36 1.42
0.43 0.43 0.46 0.50 0.52 0.64 0.73 0.76 0.84 0.86 0.87 0.85 0.84 0.74 0.71 0.76 0.84 1.01 1.10 1.11 1.11 1.12 1.11 1.06 1.11 1.09 1.06 1.04 0.97 0.92 0.83 0.75 0.79 0.74 0.77 0.78 0.74 0.78 0.85 0.68 0.73 0.84 1.08
0.34 0.36 0.40 0.45 0.48 0.55 0.70 0.82 0.97 1.09 1.05 1.07 1.01 0.89 0.91 1.05 1.19 1.32 1.32 1.40 1.46 1.34 1.29 1.23 1.23 1.18 1.12 1.14 1.05 0.94 0.86 0.76 0.83 0.87 0.86 0.87 0.82 0.77 0.83 0.72 0.65 0.57 0.69
0.23 0.26 0.32 0.36 0.44 0.53 0.61 0.75 0.96 1.24 1.35 1.44 1.40 1.22 1.16 1.28 1.52 1.72 1.69 1.73 1.76 1.63 1.58 1.64 1.82 1.77 1.50 1.27 1.28 1.11 0.93 0.77 0.87 0.90 0.88 0.91 0.93 1.00 1.05 0.93 0.75 0.68 0.58
0.17 0.18 0.24 0.32 0.42 0.51 0.60 0.77 0.94 1.08 1.08 1.26 1.41 1.39 1.30 1.29 1.44 1.57 1.83 1.92 1.84 1.85 1.97 1.99 2.30 2.43 2.01 1.59 1.57 1.67 1.40 1.19 0.93 0.78 0.83 0.86 0.94 1.14 1.17 0.97 0.85 0.73 0.65
0.12 0.13 0.17 0.24 0.35 0.48 0.64 0.87 1.09 1.27 1.36 1.42 1.35 1.43 1.44 1.37 1.41 1.51 1.66 1.82 1.83 1.89 1.98 2.09 2.41 2.85 2.61 2.08 1.85 2.02 1.72 1.53 1.34 0.97 0.81 0.83 0.94 1.13 1.24 1.16 1.08 0.97 0.81
0.11 0.10 0.14 0.23 0.38 0.59 0.80 1.06 1.31 1.51 1.55 1.44 1.48 1.51 1.39 1.34 1.30 1.37 1.51 1.65 1.77 1.79 1.92 2.02 2.13 2.58 2.89 2.57 2.27 1.94 1.61 1.54 1.62 1.42 1.05 0.95 1.00 1.06 1.14 1.11 1.10 1.18 1.09
0.17 0.18 0.25 0.45 0.70 0.96 1.17 1.43 1.72 1.72 1.61 1.51 1.51 1.48 1.42 1.43 1.40 1.39 1.53 1.60 1.62 1.68 1.78 2.11 2.36 2.60 2.78 2.71 2.61 2.43 2.18 1.88 1.51 1.60 1.54 1.28 1.16 1.09 1.10 1.13 1.15 1.18 1.17
0.47 0.61 0.81 1.08 1.27 1.36 1.49 1.64 1.76 1.73 1.74 1.68 1.50 1.40 1.40 1.44 1.49 1.54 1.59 1.60 1.57 1.60 1.71 1.93 2.21 2.41 2.72 2.89 2.77 2.55 2.39 2.23 1.99 1.84 1.62 1.52 1.47 1.23 1.17 1.17 1.13 1.17 1.24